Home > Weather > Whistler > Past weeks

Flag for Canada Past Weather in Whistler, British Columbia, Canada — Yesterday and Last 2 Weeks

Now
54 °F

Cool.


Feels Like: 54 °F
Forecast: 36 / 66 °F
Wind: 1 mph from South

Location: Squamish Airport

Current Time: May 29, 2016 at 10:05:23 PM

Latest Report: May 29, 2016 at 9:00 PM


Visibility: N/A

Pressure: 30.15 "Hg (27.81 "Hg at 674m altitude)

Humidity: 78%

Dew Point: 47 °F

Location of WhistlerLocation

Past Weather in Whistler — Graph

°F

Whistler Temperature Yesterday

Maximum temperature yesterday: 49 °F (at 12:00 AM)
Minimum temperature yesterday: 44 °F (at 4:00 PM)
Average temperature yesterday: 46 °F

High & Low Weather Summary for the Past Weeks

 TemperatureHumidityPressure
High71 °F (May 17, 5:00 PM)100% (May 25, 6:00 AM)30.27 "Hg (May 25, 6:00 AM)
Low44 °F (May 28, 4:00 PM)36% (May 21, 1:00 PM)29.70 "Hg (May 21, 4:00 PM)
Average56 °F75%29.97 "Hg
* Reported May 14 8:00 PM — May 29 8:00 PM, Whistler, Weather by CustomWeather, © 2016

Note: Actual official high and low records may vary slightly from our data, if they occured in-between our weather recording intervals... More about our weather records

Advertising

Whistler Weather History for the Previous 24 Hours

Scroll right to see more
 ConditionsComfort  
Time TempWeatherWind HumidityBarometerVisibility
8:00 PM
Sun, May 29
59 °FCool.2 mph62%30.13 "HgN/A
7:00 PM64 °FMild.5 mph47%30.11 "HgN/A
6:00 PM65 °FMild.7 mph46%30.11 "HgN/A
5:00 PM63 °FMild.3 mph50%30.10 "HgN/A
4:00 PM66 °FMild.9 mph47%30.09 "HgN/A
3:00 PM65 °FMild.7 mph51%30.09 "HgN/A
2:00 PM64 °FMild.9 mph53%30.08 "HgN/A
1:00 PM61 °FRefreshingly cool.6 mph59%30.09 "HgN/A
12:00 PM61 °FRefreshingly cool.8 mph59%30.08 "HgN/A
11:00 AM59 °FCool.3 mph61%30.07 "HgN/A
10:00 AM56 °FCool.1 mph68%30.07 "HgN/A
9:00 AM50 °FCool.1 mph86%30.07 "HgN/A
8:00 AM47 °FCool.2 mph96%30.07 "HgN/A
7:00 AM45 °FCool.1 mph96%30.07 "HgN/A
6:00 AM45 °FQuite cool.1 mph90%30.06 "HgN/A
5:00 AM45 °FQuite cool.1 mph90%30.04 "HgN/A
4:00 AM44 °FQuite cool.No wind97%30.03 "HgN/A
3:00 AM45 °FQuite cool.2 mph96%30.03 "HgN/A
2:00 AM44 °FQuite cool.1 mph96%30.03 "HgN/A
1:00 AM45 °FCool.2 mph97%30.02 "HgN/A
12:00 AM45 °FQuite cool.1 mph96%30.02 "HgN/A
11:00 PM
Sat, May 28
45 °FCool.1 mph96%30.02 "HgN/A
10:00 PM44 °FQuite cool.1 mph100%30.02 "HgN/A
Weather by CustomWeather, © 2016

See weather overviewHow to use our weather pages